You are listening to:
ZBAA Tower - Beijing, China

ZBAA 270800Z 11003MPS CAVOK 16/M08 Q1025 NOSIG

If stream doesn't start automatically press the play button
If stream stops then reload player then press play